Weather History for Jonesboro, AR

Change the Weather History Date:

Wednesday, September 4, 2013

  Actual Average Record
Temperature  
Mean Temperature 75 °F 76 °F  
Max Temperature 89 °F 87 °F 107 °F (1925)
Min Temperature 61 °F 65 °F 43 °F (1974)
Degree Days  
Heating Degree Days 0 0  
Month to date heating degree days 0 0  
Since 1 July heating degree days 0 0  
Cooling Degree Days 10 11  
Month to date cooling degree days 58 47  
Year to date cooling degree days 1658 1593  
Growing Degree Days 26 (Base 50)    
Moisture  
Dew Point 61 °F    
Average Humidity 64    
Maximum Humidity 90    
Minimum Humidity 38    
Precipitation  
Precipitation 0.00 in 0.09 in 2.00 in (1906)
Month to date precipitation T 0.35  
Year to date precipitation 37.45 31.46  
Snow  
Snow 0.00 in - - ()
Month to date snowfall 0.0  
Since 1 July snowfall 0.0  
Since 1 September snowfall 0.0  
Snow Depth 0.00 in    
Sea Level Pressure  
Sea Level Pressure 30.09 in    
Wind  
Wind Speed 4 mph (NE)    
Max Wind Speed 12 mph    
Max Gust Speed 18 mph    
Visibility 10 miles    
Events      
T = Trace of Precipitation, MM = Missing Value Source: NWS Daily Summary

Daily Weather History Graph

Daily Weather History Graph

Search for Another Location

Airport:

Trip Planner

Search our weather history database for the weather conditions in past years. The results will help you decide how hot, cold, wet, or windy it might be!

Date:

Astronomy

Sep. 04, 2013 Rise Set
Actual Time 6:37 AM CDT 7:25 PM CDT
Civil Twilight 6:11 AM CDT 7:51 PM CDT
Nautical Twilight 5:40 AM CDT 8:21 PM CDT
Astronomical Twilight 5:08 AM CDT 8:53 PM CDT
Moon 5:49 AM CDT (9/4) 6:46 PM CDT (9/4)
Length of Visible Light 13h 40m
Length of Day
12h 48m
Waning Crescent, 1% of the Moon is Illuminated
Sep 4
Waning Crescent
Sep 5
New
Sep 12
First Quarter
Sep 19
Full
Sep 26
Last Quarter

Hourly Weather History & Observations

Time (CDT) Temp. Heat Index Dew Point Humidity Pressure Visibility Wind Dir Wind Speed Gust Speed Precip Events Conditions
12:53 AM 62.1 °F - 59.0 °F 90% 30.04 in 10.0 mi Calm Calm - N/A   Clear
1:53 AM 64.9 °F - 59.0 °F 81% 30.03 in 10.0 mi Calm Calm - N/A   Clear
2:53 AM 62.1 °F - 57.0 °F 84% 30.03 in 10.0 mi Calm Calm - N/A   Clear
3:53 AM 64.0 °F - 55.9 °F 75% 30.04 in 10.0 mi Calm Calm - N/A   Clear
4:53 AM 66.0 °F - 55.9 °F 70% 30.04 in 10.0 mi NNE 3.5 mph - N/A   Clear
5:53 AM 63.0 °F - 55.9 °F 78% 30.06 in 10.0 mi Calm Calm - N/A   Clear
6:53 AM 62.1 °F - 57.0 °F 84% 30.09 in 10.0 mi Calm Calm - N/A   Clear
7:53 AM 70.0 °F - 62.1 °F 76% 30.11 in 10.0 mi Calm Calm - N/A   Clear
8:53 AM 75.0 °F - 64.9 °F 71% 30.13 in 10.0 mi ENE 4.6 mph - N/A   Clear
9:53 AM 79.0 °F - 66.0 °F 64% 30.14 in 10.0 mi ESE 4.6 mph - N/A   Clear
10:53 AM 82.0 °F 83.8 °F 64.9 °F 56% 30.14 in 10.0 mi ESE 4.6 mph - N/A   Clear
11:53 AM 86.0 °F 85.7 °F 60.1 °F 41% 30.14 in 10.0 mi ENE 8.1 mph - N/A   Clear
12:53 PM 86.0 °F 85.7 °F 60.1 °F 41% 30.12 in 10.0 mi NE 3.5 mph - N/A   Clear
1:53 PM 88.0 °F 87.1 °F 59.0 °F 37% 30.11 in 10.0 mi ENE 8.1 mph - N/A   Clear
2:53 PM 88.0 °F 87.6 °F 60.1 °F 39% 30.09 in 10.0 mi NNE 4.6 mph - N/A   Clear
3:53 PM 89.1 °F 88.8 °F 60.1 °F 38% 30.08 in 10.0 mi East 9.2 mph - N/A   Clear
4:53 PM 88.0 °F 87.9 °F 61.0 °F 40% 30.07 in 10.0 mi ENE 5.8 mph - N/A   Clear
5:53 PM 86.0 °F 86.3 °F 62.1 °F 44% 30.06 in 10.0 mi ENE 8.1 mph - N/A   Clear
6:53 PM 81.0 °F 82.5 °F 64.0 °F 56% 30.07 in 10.0 mi NE 4.6 mph - N/A   Clear
7:53 PM 73.0 °F - 63.0 °F 71% 30.08 in 10.0 mi NE 4.6 mph - N/A   Partly Cloudy
8:53 PM 70.0 °F - 64.0 °F 81% 30.10 in 10.0 mi NE 3.5 mph - N/A   Clear
9:53 PM 68.0 °F - 62.1 °F 81% 30.12 in 10.0 mi NNE 3.5 mph - N/A   Clear
10:53 PM 66.9 °F - 63.0 °F 87% 30.12 in 10.0 mi NNE 3.5 mph - N/A   Clear
11:53 PM 68.0 °F - 62.1 °F 81% 30.12 in 10.0 mi Calm Calm - N/A   Clear